Torna al catalogo

DELTA 1 DEB

AttivoLEO
NORAD 10747·DEBRIS·🇺🇸 United States

Lanciato Jul 29, 1976 da Vandenberg Space Force Base

Loading…

Prossimi Passaggi (prossime 24 ore)

TLE

AggiornatoSource: Space-Track

Epoca: Sep 14, 2026, 11:24 UTC

1 10747U 76077AU  26257.47520872  .00002769  00000-0  33272-2 0  9996
2 10747 101.0913 262.7189 0130775 182.2420 342.0743 13.64355324420503

Traccia DELTA 1 DEB in tempo reale con AllMySat

Download on the App Store